• In United Kingdom
  • List of Countries
  • For 7 days
  • Water Temperature
  • Satellite Maps
  • Weather Map
  • Weather Widgets
  • user-avatar
    Login

    Hourly Weather Brisbane

    Today, 17 August, Thursday

    Time Temperature Precipitation Wind Pressure Humidity
    00:00 +22°C° 0 mm 4 mps 757 mmHg 49%
    01:00 +22°C° 0 mm 4 mps 757 mmHg 50%
    02:00 +21°C° 0 mm 4 mps 757 mmHg 52%
    03:00 +20°C° 0 mm 3 mps 757 mmHg 54%
    04:00 +20°C° 0 mm 3 mps 756 mmHg 59%
    05:00 +20°C° 0 mm 3 mps 757 mmHg 60%
    06:00 +20°C° 0 mm 3 mps 757 mmHg 62%
    07:00 +20°C° 0 mm 4 mps 757 mmHg 63%
    08:00 +23°C° 0 mm 4 mps 757 mmHg 53%
    09:00 +27°C° 0 mm 4 mps 757 mmHg 44%
    10:00 +30°C° 0 mm 4 mps 757 mmHg 34%
    11:00 +32°C° 0 mm 4 mps 757 mmHg 29%
    12:00 +34°C° 0 mm 5 mps 756 mmHg 25%
    13:00 +35°C° 0 mm 5 mps 756 mmHg 21%
    14:00 +35°C° 0 mm 5 mps 755 mmHg 21%
    15:00 +34°C° 0 mm 5 mps 755 mmHg 21%
    16:00 +34°C° 0 mm 5 mps 755 mmHg 21%
    17:00 +32°C° 0 mm 4 mps 755 mmHg 25%
    18:00 +29°C° 0 mm 4 mps 756 mmHg 29%
    19:00 +26°C° 0 mm 3 mps 757 mmHg 33%
    20:00 +25°C° 0 mm 3 mps 757 mmHg 34%
    21:00 +24°C° 0 mm 3 mps 758 mmHg 36%
    22:00 +22°C° 0 mm 3 mps 758 mmHg 38%
    23:00 +21°C° 0 mm 4 mps 758 mmHg 37%

    Tomorrow, 18 August, Friday

    Time Temperature Precipitation Wind Pressure Humidity
    00:00 +20°C° 0 mm 4 mps 759 mmHg 37%
    01:00 +19°C° 0 mm 4 mps 759 mmHg 37%
    02:00 +19°C° 0 mm 4 mps 759 mmHg 36%
    03:00 +18°C° 0 mm 4 mps 759 mmHg 36%
    04:00 +16°C° 0 mm 5 mps 759 mmHg 36%
    05:00 +16°C° 0 mm 5 mps 759 mmHg 36%
    06:00 +16°C° 0 mm 5 mps 760 mmHg 37%
    07:00 +15°C° 0 mm 5 mps 760 mmHg 37%
    08:00 +19°C° 0 mm 5 mps 760 mmHg 32%
    09:00 +21°C° 0 mm 6 mps 760 mmHg 26%
    10:00 +24°C° 0 mm 6 mps 760 mmHg 20%
    11:00 +24°C° 0 mm 6 mps 760 mmHg 19%
    12:00 +26°C° 0 mm 7 mps 759 mmHg 17%
    13:00 +27°C° 0 mm 7 mps 759 mmHg 16%
    14:00 +27°C° 0 mm 7 mps 758 mmHg 16%
    15:00 +26°C° 0 mm 6 mps 758 mmHg 16%
    16:00 +26°C° 0 mm 6 mps 758 mmHg 16%
    17:00 +23°C° 0 mm 6 mps 759 mmHg 19%
    18:00 +21°C° 0 mm 6 mps 760 mmHg 22%
    19:00 +19°C° 0 mm 6 mps 761 mmHg 25%
    20:00 +17°C° 0 mm 6 mps 761 mmHg 28%
    21:00 +16°C° 0 mm 6 mps 762 mmHg 32%
    22:00 +15°C° 0 mm 6 mps 762 mmHg 35%
    23:00 +14°C° 0 mm 6 mps 762 mmHg 36%

    Day after tomorrow, 19 August, Saturday

    Time Temperature Precipitation Wind Pressure Humidity
    00:00 +14°C° 0 mm 6 mps 762 mmHg 36%
    01:00 +13°C° 0 mm 6 mps 762 mmHg 37%
    02:00 +13°C° 0 mm 6 mps 762 mmHg 38%
    03:00 +11°C° 0 mm 6 mps 762 mmHg 38%
    04:00 +11°C° 0 mm 6 mps 762 mmHg 39%
    05:00 +10°C° 0 mm 6 mps 762 mmHg 39%
    06:00 +10°C° 0 mm 6 mps 763 mmHg 40%
    07:00 +10°C° 0 mm 6 mps 763 mmHg 40%
    08:00 +12°C° 0 mm 7 mps 763 mmHg 35%
    09:00 +15°C° 0 mm 7 mps 763 mmHg 30%
    10:00 +17°C° 0 mm 7 mps 763 mmHg 24%
    11:00 +18°C° 0 mm 7 mps 762 mmHg 22%
    12:00 +20°C° 0 mm 7 mps 761 mmHg 19%
    13:00 +21°C° 0 mm 7 mps 760 mmHg 17%
    14:00 +21°C° 0 mm 7 mps 760 mmHg 17%
    15:00 +21°C° 0 mm 7 mps 760 mmHg 17%
    16:00 +21°C° 0 mm 7 mps 760 mmHg 17%
    17:00 +18°C° 0 mm 7 mps 761 mmHg 20%
    18:00 +16°C° 0 mm 7 mps 761 mmHg 22%
    19:00 +15°C° 0 mm 6 mps 762 mmHg 25%
    20:00 +14°C° 0 mm 6 mps 763 mmHg 25%
    21:00 +13°C° 0 mm 6 mps 763 mmHg 26%
    22:00 +11°C° 0 mm 6 mps 764 mmHg 27%
    23:00 +11°C° 0 mm 6 mps 764 mmHg 29%

    20 August, Sunday

    Time Temperature Precipitation Wind Pressure Humidity
    00:00 +10°C° 0 mm 5 mps 764 mmHg 31%
    01:00 +9°C° 0 mm 5 mps 764 mmHg 33%
    02:00 +9°C° 0 mm 5 mps 763 mmHg 35%
    03:00 +8°C° 0 mm 5 mps 763 mmHg 37%
    04:00 +8°C° 0 mm 5 mps 763 mmHg 40%
    05:00 +8°C° 0 mm 5 mps 764 mmHg 41%
    06:00 +8°C° 0 mm 5 mps 764 mmHg 43%
    07:00 +8°C° 0 mm 4 mps 765 mmHg 44%
    08:00 +12°C° 0 mm 4 mps 765 mmHg 41%
    09:00 +14°C° 0 mm 4 mps 765 mmHg 39%
    10:00 +18°C° 0 mm 4 mps 765 mmHg 36%
    11:00 +19°C° 0 mm 4 mps 764 mmHg 33%
    12:00 +21°C° 0 mm 4 mps 763 mmHg 30%
    13:00 +22°C° 0 mm 3 mps 763 mmHg 27%
    14:00 +22°C° 0 mm 3 mps 762 mmHg 27%
    15:00 +22°C° 0 mm 3 mps 762 mmHg 27%
    16:00 +22°C° 0 mm 3 mps 762 mmHg 27%
    17:00 +20°C° 0 mm 3 mps 762 mmHg 35%
    18:00 +18°C° 0 mm 3 mps 763 mmHg 42%
    19:00 +14°C° 0 mm 3 mps 764 mmHg 50%
    20:00 +14°C° 0 mm 3 mps 764 mmHg 53%
    21:00 +13°C° 0 mm 3 mps 764 mmHg 56%
    22:00 +13°C° 0 mm 2 mps 765 mmHg 59%
    23:00 +13°C° 0 mm 2 mps 765 mmHg 60%

    21 August, Monday

    Time Temperature Precipitation Wind Pressure Humidity
    00:00 +12°C° 0 mm 2 mps 764 mmHg 61%
    01:00 +10°C° 0 mm 2 mps 764 mmHg 62%
    02:00 +10°C° 0 mm 2 mps 764 mmHg 63%
    03:00 +10°C° 0 mm 2 mps 763 mmHg 63%
    04:00 +9°C° 0 mm 2 mps 763 mmHg 64%
    05:00 +10°C° 0 mm 2 mps 763 mmHg 63%
    06:00 +10°C° 0 mm 2 mps 764 mmHg 61%
    07:00 +10°C° 0 mm 2 mps 764 mmHg 60%
    08:00 +14°C° 0 mm 2 mps 764 mmHg 53%
    09:00 +18°C° 0 mm 2 mps 764 mmHg 46%
    10:00 +21°C° 0 mm 2 mps 764 mmHg 39%
    11:00 +23°C° 0 mm 2 mps 763 mmHg 36%
    12:00 +24°C° 0 mm 2 mps 762 mmHg 32%
    13:00 +25°C° 0 mm 2 mps 761 mmHg 29%
    14:00 +25°C° 0 mm 3 mps 761 mmHg 32%
    15:00 +24°C° 0 mm 3 mps 761 mmHg 36%
    16:00 +22°C° 0 mm 4 mps 761 mmHg 39%
    17:00 +21°C° 0 mm 4 mps 762 mmHg 46%
    18:00 +19°C° 0 mm 3 mps 762 mmHg 53%
    19:00 +18°C° 0 mm 3 mps 762 mmHg 60%
    20:00 +17°C° 0 mm 3 mps 762 mmHg 64%
    21:00 +17°C° 0 mm 3 mps 762 mmHg 67%
    22:00 +16°C° 0 mm 3 mps 762 mmHg 70%
    23:00 +15°C° 0 mm 4 mps 761 mmHg 72%

    22 August, Tuesday

    Time Temperature Precipitation Wind Pressure Humidity
    00:00 +15°C° 0 mm 4 mps 761 mmHg 75%
    01:00 +15°C° 0 mm 4 mps 761 mmHg 77%
    02:00 +14°C° 0 mm 4 mps 761 mmHg 79%
    03:00 +14°C° 0 mm 4 mps 760 mmHg 82%
    04:00 +14°C° 0 mm 4 mps 760 mmHg 84%
    05:00 +15°C° 0 mm 5 mps 760 mmHg 83%
    06:00 +15°C° 0 mm 5 mps 761 mmHg 82%
    07:00 +15°C° 0 mm 5 mps 761 mmHg 82%
    08:00 +19°C° 0 mm 5 mps 761 mmHg 66%
    09:00 +21°C° 0 mm 5 mps 761 mmHg 51%
    10:00 +24°C° 0 mm 6 mps 761 mmHg 36%
    11:00 +26°C° 0 mm 6 mps 760 mmHg 31%
    12:00 +26°C° 0 mm 6 mps 760 mmHg 26%
    13:00 +27°C° 0 mm 6 mps 759 mmHg 21%
    14:00 +27°C° 0 mm 6 mps 759 mmHg 22%
    15:00 +26°C° 0 mm 6 mps 759 mmHg 24%
    16:00 +26°C° 0 mm 5 mps 760 mmHg 26%
    17:00 +23°C° 0 mm 5 mps 760 mmHg 30%
    18:00 +21°C° 0 mm 5 mps 761 mmHg 34%
    19:00 +19°C° 0 mm 4 mps 762 mmHg 39%
    20:00 +18°C° 0 mm 4 mps 763 mmHg 41%
    21:00 +17°C° 0 mm 4 mps 763 mmHg 44%
    22:00 +15°C° 0 mm 4 mps 764 mmHg 47%
    23:00 +14°C° 0 mm 4 mps 764 mmHg 49%
    Show more